 day, avr_air_temp(C), avr_RH(%), avr_ground_temp10cm(C), avr_ground_temp20cm(C), avr_ground_temp40cm(C), sum_precipitation(mm/h), sum_Solar_Radiation(MJ/m2h), max_air_temp(C), max_air_temp(time), max_RH(%), max_RH(time), max_ground_temp10cm(C), max_ground_temp10cm(time), max_ground_temp20cm(C), max_ground_temp20cm(time), max_ground_temp40cm(C), max_ground_temp40cm(time), max_precipitation(mm/h), max_precipitation(time), max_Solar_Radiation(MJ/m2h), max_Solar_Radiation(time), min_air_temp(C), min_air_temp(time), min_RH(%), min_RH(time), min_ground_temp10cm(C), min_ground_temp10cm(time), min_ground_temp20cm(C), min_ground_temp20cm(time), min_ground_temp40cm(C), min_ground_temp40cm(time), 
 03/01/01, -4.7, 95, 1.5, 2.1, 3.2, 10, 6.06, -3.2,  03/01/01 13:00, 99, 03/01/01 09:00, 1.5, 03/01/01 01:00, 2.1, 03/01/01 01:00, 3.2, 03/01/01 01:00, 3, 03/01/02 00:00, 1.84, 03/01/01 13:00, -6.6,  03/01/02 00:00, 90, 03/01/01 16:00, 1.5, 03/01/01 01:00, 2.1, 03/01/01 01:00, 3.2, 03/01/01 01:00, 
 03/01/02, -9.8, 86, 1.5, 2, 3.1, 3, 6.85, -7.1,  03/01/02 01:00, 96, 03/01/02 03:00, 1.6, 03/01/03 00:00, 2.1, 03/01/02 01:00, 3.2, 03/01/02 01:00, 0.5, 03/01/02 02:00, 1.69, 03/01/02 13:00, -12.9,  03/01/02 20:00, 72, 03/01/03 00:00, 1.4, 03/01/02 10:00, 2, 03/01/02 08:00, 3.1, 03/01/02 06:00, 
 03/01/03, -2.5, 85, 1.6, 2, 3.2, 25, 2.89, -0.5,  03/01/03 18:00, 99, 03/01/03 18:00, 1.7, 03/01/03 14:00, 2.1, 03/01/03 08:00, 3.2, 03/01/03 02:00, 5, 03/01/03 21:00, 0.71, 03/01/03 11:00, -7.5,  03/01/03 01:00, 45, 03/01/03 01:00, 1.5, 03/01/03 23:00, 2, 03/01/03 01:00, 3.1, 03/01/03 01:00, 
 03/01/04, -5.4, 91, 1.5, 2, 3.2, 2.5, 3.83, -1.1,  03/01/04 01:00, 98, 03/01/04 06:00, 1.6, 03/01/04 04:00, 2.1, 03/01/04 11:00, 3.2, 03/01/04 01:00, 0.5, 03/01/04 01:00, 0.83, 03/01/04 13:00, -9.4,  03/01/05 00:00, 83, 03/01/04 14:00, 1.5, 03/01/04 01:00, 2, 03/01/04 01:00, 3.1, 03/01/04 21:00, 
 03/01/05, -9.8, 91, 1.4, 2, 3.1, 29, 1.18, -8.8,  03/01/05 12:00, 94, 03/01/05 13:00, 1.5, 03/01/05 01:00, 2, 03/01/05 01:00, 3.2, 03/01/05 01:00, 3.5, 03/01/05 10:00, 0.32, 03/01/05 14:00, -11.2,  03/01/06 00:00, 88, 03/01/05 23:00, 1.4, 03/01/05 07:00, 2, 03/01/05 01:00, 3.1, 03/01/05 03:00, 
 03/01/06, -9.7, 83, 1.4, 2, 3.1, 9, 9.43, -6,  03/01/06 14:00, 96, 03/01/06 12:00, 1.5, 03/01/06 11:00, 2.1, 03/01/06 12:00, 3.2, 03/01/06 11:00, 6, 03/01/06 12:00, 1.93, 03/01/06 14:00, -11.6,  03/01/06 03:00, 71, 03/01/06 14:00, 1.1, 03/01/07 00:00, 1.9, 03/01/06 22:00, 3.1, 03/01/06 01:00, 
 03/01/07, -6.4, 80, 0.9, 1.8, 3.1, 0.5, 9.23, -3.5,  03/01/07 12:00, 93, 03/01/07 16:00, 1.2, 03/01/07 01:00, 2, 03/01/07 01:00, 3.1, 03/01/07 01:00, 0.5, 03/01/07 21:00, 1.95, 03/01/07 12:00, -10.6,  03/01/07 01:00, 62, 03/01/07 09:00, 0.7, 03/01/08 00:00, 1.6, 03/01/07 23:00, 3, 03/01/07 09:00, 
 03/01/08, -7.2, 84, 0.7, 1.6, 3, 0, 13.81, -3.9,  03/01/08 15:00, 91, 03/01/08 20:00, 0.8, 03/01/08 01:00, 1.7, 03/01/08 11:00, 3.1, 03/01/08 01:00, 0,   /  /     :, 2.55, 03/01/08 12:00, -10.9,  03/01/08 08:00, 74, 03/01/08 07:00, 0.7, 03/01/08 02:00, 1.5, 03/01/08 21:00, 2.9, 03/01/08 08:00, 
 03/01/09, -5.1, 65, 0.6, 1.4, 2.9, 0, 11.81, -0.7,  03/01/09 14:00, 78, 03/01/09 18:00, 0.7, 03/01/09 01:00, 1.5, 03/01/09 01:00, 3, 03/01/09 01:00, 0,   /  /     :, 2.14, 03/01/09 12:00, -10.7,  03/01/09 07:00, 42, 03/01/09 10:00, 0.5, 03/01/10 00:00, 1.3, 03/01/09 20:00, 2.8, 03/01/09 06:00, 
 03/01/10, -2.9, 86, 0.5, 1.4, 2.8, 0, 6.38, -1,  03/01/10 14:00, 97, 03/01/10 19:00, 0.6, 03/01/10 12:00, 1.4, 03/01/10 11:00, 2.9, 03/01/10 01:00, 0,   /  /     :, 1.33, 03/01/10 12:00, -5.1,  03/01/11 00:00, 70, 03/01/10 01:00, 0.5, 03/01/10 01:00, 1.3, 03/01/10 01:00, 2.7, 03/01/10 04:00, 
 03/01/11, -4.7, 76, 0.5, 1.2, 2.7, 0.5, 11.93, -1.6,  03/01/11 13:00, 96, 03/01/11 02:00, 0.6, 03/01/11 12:00, 1.3, 03/01/11 01:00, 2.8, 03/01/11 01:00, 0.5, 03/01/11 12:00, 2.4, 03/01/11 12:00, -7.6,  03/01/11 08:00, 57, 03/01/11 16:00, 0.5, 03/01/11 01:00, 1.2, 03/01/11 04:00, 2.6, 03/01/11 06:00, 
 03/01/12, -3.5, 82, 0.5, 1.2, 2.6, 0, 6.53, -0.7,  03/01/12 13:00, 94, 03/01/12 09:00, 0.5, 03/01/12 01:00, 1.2, 03/01/12 01:00, 2.7, 03/01/12 01:00, 0,   /  /     :, 1.16, 03/01/12 11:00, -5.8,  03/01/12 21:00, 66, 03/01/12 03:00, 0.5, 03/01/12 01:00, 1.2, 03/01/12 01:00, 2.5, 03/01/12 22:00, 
 03/01/13, -2.3, 72, 0.5, 1.2, 2.6, 0.5, 10.68, 2.1,  03/01/13 13:00, 89, 03/01/13 07:00, 0.6, 03/01/13 11:00, 1.3, 03/01/13 11:00, 2.6, 03/01/13 02:00, 0.5, 03/01/13 15:00, 1.99, 03/01/13 11:00, -5.1,  03/01/13 07:00, 52, 03/01/13 13:00, 0.4, 03/01/13 17:00, 1.1, 03/01/13 20:00, 2.5, 03/01/13 01:00, 
 03/01/14, -2.9, 84, 0.4, 1.1, 2.6, 3.5, 2.79, -0.5,  03/01/14 14:00, 98, 03/01/14 17:00, 0.5, 03/01/14 15:00, 1.2, 03/01/14 12:00, 2.6, 03/01/14 01:00, 1.5, 03/01/14 19:00, 0.74, 03/01/14 14:00, -7.7,  03/01/15 00:00, 58, 03/01/14 03:00, 0.4, 03/01/14 01:00, 1.1, 03/01/14 01:00, 2.5, 03/01/14 04:00, 
 03/01/15, -10.7, 87, 0.4, 1.2, 2.5, 4, 5.85, -7.9,  03/01/15 01:00, 93, 03/01/15 03:00, 0.5, 03/01/15 12:00, 1.2, 03/01/15 11:00, 2.5, 03/01/15 01:00, 0.5, 03/01/15 01:00, 1.22, 03/01/15 12:00, -13.4,  03/01/16 00:00, 75, 03/01/15 13:00, 0.4, 03/01/15 01:00, 1.1, 03/01/15 01:00, 2.5, 03/01/15 01:00, 
 03/01/16, -7.2, 66, 0.4, 1.1, 2.5, 0.5, 8.65, -1.9,  03/01/16 14:00, 86, 03/01/16 01:00, 0.4, 03/01/16 01:00, 1.2, 03/01/16 01:00, 2.5, 03/01/16 01:00, 0.5, 03/01/16 13:00, 1.45, 03/01/16 12:00, -14,  03/01/16 06:00, 32, 03/01/16 16:00, 0.4, 03/01/16 01:00, 1, 03/01/16 20:00, 2.5, 03/01/16 01:00, 
 03/01/17, -1.2, 82, 0.4, 1.1, 2.5, 0.5, 9.05, 2.7,  03/01/17 14:00, 97, 03/01/17 18:00, 0.5, 03/01/17 12:00, 1.1, 03/01/17 06:00, 2.6, 03/01/17 13:00, 0.5, 03/01/17 18:00, 2.29, 03/01/17 13:00, -3.8,  03/01/17 01:00, 66, 03/01/17 13:00, 0.4, 03/01/17 01:00, 1, 03/01/17 01:00, 2.4, 03/01/17 17:00, 
 03/01/18, -2.5, 85, 0.4, 1.1, 2.4, 0.5, 6.27, 0.7,  03/01/18 14:00, 96, 03/01/18 21:00, 0.4, 03/01/18 01:00, 1.1, 03/01/18 01:00, 2.4, 03/01/18 01:00, 0.5, 03/01/18 18:00, 1.03, 03/01/18 13:00, -7.3,  03/01/19 00:00, 71, 03/01/18 15:00, 0.4, 03/01/18 01:00, 1, 03/01/18 04:00, 2.4, 03/01/18 01:00, 
 03/01/19, -4.1, 85, 0.4, 1.1, 2.4, 1.5, 3.7, -0.8,  03/01/19 14:00, 99, 03/01/20 00:00, 0.4, 03/01/19 01:00, 1.1, 03/01/19 03:00, 2.4, 03/01/19 01:00, 0.5, 03/01/19 02:00, 0.69, 03/01/19 10:00, -6.5,  03/01/19 01:00, 62, 03/01/19 14:00, 0.4, 03/01/19 01:00, 1, 03/01/19 01:00, 2.4, 03/01/19 01:00, 
 03/01/20, -5, 93, 0.4, 1, 2.4, 2, 7.05, -2,  03/01/20 15:00, 97, 03/01/20 03:00, 0.4, 03/01/20 01:00, 1.1, 03/01/20 12:00, 2.4, 03/01/20 01:00, 1, 03/01/21 00:00, 1.41, 03/01/20 11:00, -6.9,  03/01/21 00:00, 85, 03/01/20 14:00, 0.4, 03/01/20 01:00, 1, 03/01/20 01:00, 2.4, 03/01/20 01:00, 
 03/01/21, -8.2, 86, 0.4, 1, 2.3, 4.5, 6.54, -6.2,  03/01/21 12:00, 93, 03/01/21 01:00, 0.5, 03/01/21 13:00, 1.1, 03/01/21 12:00, 2.4, 03/01/21 01:00, 1.5, 03/01/21 01:00, 1.23, 03/01/21 13:00, -11.4,  03/01/21 23:00, 68, 03/01/21 11:00, 0.4, 03/01/21 01:00, 1, 03/01/21 01:00, 2.3, 03/01/21 04:00, 
 03/01/22, -6.8, 70, 0.4, 1, 2.3, 0.5, 8.86, -3.5,  03/01/22 12:00, 83, 03/01/23 00:00, 0.4, 03/01/22 01:00, 1.1, 03/01/22 13:00, 2.3, 03/01/22 01:00, 0.5, 03/01/22 05:00, 1.63, 03/01/22 12:00, -11.2,  03/01/22 05:00, 58, 03/01/22 09:00, 0.4, 03/01/22 01:00, 1, 03/01/22 01:00, 2.2, 03/01/22 04:00, 
 03/01/23, -2, 95, 0.4, 1.1, 2.3, 32, 0, 0.6,  03/01/23 12:00, 99, 03/01/23 10:00, 0.5, 03/01/23 15:00, 1.1, 03/01/23 11:00, 2.3, 03/01/23 01:00, 4, 03/01/23 11:00, 0,   /  /     :, -5.3,  03/01/24 00:00, 73, 03/01/23 04:00, 0.3, 03/01/23 01:00, 1, 03/01/23 01:00, 2.2, 03/01/23 02:00, 
 03/01/24, -8, 93, 0.4, 1, 2.3, 18.5, 1.09, -5.5,  03/01/24 01:00, 99, 03/01/24 11:00, 0.4, 03/01/24 01:00, 1, 03/01/24 01:00, 2.3, 03/01/24 01:00, 1.5, 03/01/24 01:00, 0.21, 03/01/24 14:00, -9.6,  03/01/24 23:00, 90, 03/01/24 07:00, 0.3, 03/01/24 21:00, 1, 03/01/24 01:00, 2.2, 03/01/24 04:00, 
 03/01/25, -8.2, 88, 0.4, 1, 2.3, 3, 2.86, -5.7,  03/01/25 14:00, 92, 03/01/25 10:00, 0.4, 03/01/25 01:00, 1, 03/01/25 01:00, 2.3, 03/01/25 01:00, 1, 03/01/25 01:00, 0.62, 03/01/25 14:00, -9.8,  03/01/26 00:00, 80, 03/01/25 16:00, 0.3, 03/01/25 03:00, 1, 03/01/25 01:00, 2.2, 03/01/25 03:00, 
 03/01/26, -4.4, 86, 0.3, 1, 2.2, 0, 2.59, -0.2,  03/01/26 14:00, 92, 03/01/26 09:00, 0.4, 03/01/26 10:00, 1, 03/01/26 01:00, 2.3, 03/01/26 12:00, 0,   /  /     :, 0.45, 03/01/26 13:00, -11.1,  03/01/26 07:00, 74, 03/01/26 10:00, 0.3, 03/01/26 01:00, 1, 03/01/26 01:00, 2.2, 03/01/26 01:00, 
 03/01/27, 2, 95, 0.4, 1, 2.2, 33, 0.73, 5.6,  03/01/27 16:00, 99, 03/01/27 07:00, 0.5, 03/01/27 14:00, 1.1, 03/01/27 13:00, 2.3, 03/01/27 12:00, 6.5, 03/01/27 15:00, 0.19, 03/01/27 13:00, -1.5,  03/01/27 03:00, 84, 03/01/27 01:00, 0.3, 03/01/27 02:00, 1, 03/01/27 01:00, 2.2, 03/01/27 01:00, 
 03/01/28, -5.3, 87, 0.4, 1, 2.1, 3.5, 4.75, 0.5,  03/01/28 01:00, 99, 03/01/28 01:00, 0.5, 03/01/28 16:00, 1, 03/01/28 01:00, 2.2, 03/01/28 01:00, 1.5, 03/01/28 02:00, 1.09, 03/01/28 11:00, -8.4,  03/01/28 23:00, 77, 03/01/28 12:00, 0.4, 03/01/28 01:00, 0.9, 03/01/28 06:00, 2, 03/01/28 07:00, 
 03/01/29, -11.8, 90, 0.4, 0.9, 2, 11, 2.8, -8.8,  03/01/29 01:00, 94, 03/01/29 12:00, 0.4, 03/01/29 01:00, 1, 03/01/29 01:00, 2.1, 03/01/29 01:00, 2.5, 03/01/29 16:00, 0.67, 03/01/29 11:00, -14,  03/01/29 20:00, 84, 03/01/29 03:00, 0.3, 03/01/29 09:00, 0.9, 03/01/29 02:00, 2, 03/01/29 02:00, 
 03/01/30, -9.6, 90, 0.4, 1, 2.1, 9, 4.94, -7.8,  03/01/30 15:00, 99, 03/01/30 11:00, 0.5, 03/01/30 14:00, 1.1, 03/01/30 12:00, 2.1, 03/01/30 12:00, 1.5, 03/01/30 06:00, 0.99, 03/01/30 13:00, -13.5,  03/01/30 01:00, 83, 03/01/30 17:00, 0.3, 03/01/30 01:00, 0.9, 03/01/30 01:00, 2, 03/01/30 01:00, 
 03/01/31, -7.4, 88, 0.5, 1, 2, 1, 3.6, -5.1,  03/01/31 11:00, 96, 03/01/31 19:00, 0.5, 03/01/31 05:00, 1, 03/01/31 01:00, 2.1, 03/01/31 02:00, 0.5, 03/01/31 09:00, 0.63, 03/01/31 12:00, -9.3,  03/01/31 01:00, 79, 03/01/31 02:00, 0.4, 03/01/31 01:00, 1, 03/01/31 01:00, 2, 03/01/31 01:00, 
 03/02/01, -9.4, 81, 0.4, 1, 2, 0.5, 9.95, -7.1,  03/02/01 15:00, 92, 03/02/01 23:00, 0.5, 03/02/01 02:00, 1, 03/02/01 01:00, 2.1, 03/02/01 13:00, 0.5, 03/02/01 08:00, 2.72, 03/02/01 14:00, -13.7,  03/02/01 23:00, 69, 03/02/01 14:00, 0.4, 03/02/01 01:00, 1, 03/02/01 01:00, 2, 03/02/01 01:00, 
 03/02/02, -9.2, 83, 0.4, 1, 2, 0, 7.62, -5.8,  03/02/02 13:00, 91, 03/02/02 19:00, 0.5, 03/02/02 11:00, 1, 03/02/02 01:00, 2, 03/02/02 01:00, 0,   /  /     :, 1.29, 03/02/02 13:00, -13.8,  03/02/02 01:00, 74, 03/02/02 10:00, 0.4, 03/02/02 01:00, 1, 03/02/02 01:00, 2, 03/02/02 01:00, 
 03/02/03, -7.6, 77, 0.5, 1, 2.1, 0, 14.37, -4.2,  03/02/03 14:00, 90, 03/02/03 20:00, 0.6, 03/02/03 12:00, 1.1, 03/02/03 12:00, 2.1, 03/02/03 11:00, 0,   /  /     :, 2.53, 03/02/03 12:00, -10.2,  03/02/03 06:00, 64, 03/02/03 09:00, 0.4, 03/02/03 01:00, 1, 03/02/03 01:00, 2, 03/02/03 01:00, 
 03/02/04, -7.5, 71, 0.5, 1, 2.1, 0, 11.42, -3.8,  03/02/04 12:00, 87, 03/02/04 01:00, 0.6, 03/02/04 12:00, 1.1, 03/02/04 12:00, 2.1, 03/02/04 11:00, 0,   /  /     :, 2.4, 03/02/04 12:00, -11.6,  03/02/04 03:00, 51, 03/02/04 12:00, 0.5, 03/02/04 01:00, 1, 03/02/04 01:00, 2, 03/02/04 01:00, 
 03/02/05, -6.2, 87, 0.5, 1, 2, 1, 6.04, -3.5,  03/02/05 14:00, 93, 03/02/05 09:00, 0.5, 03/02/05 01:00, 1, 03/02/05 01:00, 2.1, 03/02/05 15:00, 0.5, 03/02/05 10:00, 1.12, 03/02/05 14:00, -8.7,  03/02/06 00:00, 75, 03/02/05 15:00, 0.4, 03/02/05 08:00, 1, 03/02/05 01:00, 2, 03/02/05 01:00, 
 03/02/06, -8.7, 82, 0.5, 1, 2.1, 1, 11.38, -6.6,  03/02/06 14:00, 90, 03/02/06 06:00, 0.6, 03/02/06 12:00, 1.1, 03/02/06 12:00, 2.1, 03/02/06 11:00, 0.5, 03/02/06 07:00, 1.97, 03/02/06 13:00, -11,  03/02/06 20:00, 67, 03/02/06 16:00, 0.4, 03/02/06 03:00, 1, 03/02/06 01:00, 2, 03/02/06 01:00, 
 03/02/07, -2, 54, 0.5, 1, 2.1, 0.5, 15.36, 3.7,  03/02/07 11:00, 80, 03/02/07 02:00, 0.6, 03/02/07 11:00, 1.1, 03/02/07 11:00, 2.1, 03/02/07 02:00, 0.5, 03/02/07 14:00, 2.51, 03/02/07 13:00, -9.9,  03/02/07 01:00, 30, 03/02/07 12:00, 0.5, 03/02/07 01:00, 1, 03/02/07 01:00, 2, 03/02/07 01:00, 
 03/02/08, 1.1, 57, 0.5, 1, 2.1, 8, 7.48, 4.2,  03/02/08 12:00, 97, 03/02/08 21:00, 0.5, 03/02/08 01:00, 1, 03/02/08 01:00, 2.1, 03/02/08 01:00, 4, 03/02/09 00:00, 1.16, 03/02/08 10:00, -3.4,  03/02/08 01:00, 21, 03/02/08 10:00, 0.5, 03/02/08 01:00, 1, 03/02/08 01:00, 2, 03/02/08 18:00, 
 03/02/09, 1.6, 93, 0.5, 1, 2.1, 1.5, 8.49, 3.6,  03/02/09 02:00, 99, 03/02/09 02:00, 0.5, 03/02/09 01:00, 1, 03/02/09 01:00, 2.1, 03/02/09 01:00, 0.5, 03/02/09 01:00, 2, 03/02/09 14:00, -1.6,  03/02/09 21:00, 49, 03/02/09 23:00, 0.5, 03/02/09 01:00, 1, 03/02/09 01:00, 2, 03/02/09 02:00, 
 03/02/10, 3.3, 85, 0.5, 1, 2, 0, 5.08, 5.3,  03/02/10 11:00, 97, 03/02/10 04:00, 0.5, 03/02/10 01:00, 1.1, 03/02/10 13:00, 2, 03/02/10 01:00, 0,   /  /     :, 1.07, 03/02/10 11:00, 0.7,  03/02/10 02:00, 59, 03/02/10 01:00, 0.5, 03/02/10 01:00, 1, 03/02/10 01:00, 2, 03/02/10 01:00, 
 03/02/11, 2, 92, 0.5, 1, 2, 8.5, 1.16, 3.9,  03/02/11 10:00, 99, 03/02/11 14:00, 0.5, 03/02/11 01:00, 1, 03/02/11 01:00, 2, 03/02/11 01:00, 2.5, 03/02/11 18:00, 0.23, 03/02/11 13:00, -0.9,  03/02/12 00:00, 82, 03/02/11 09:00, 0.3, 03/02/11 22:00, 0.9, 03/02/11 16:00, 1.8, 03/02/11 23:00, 
 03/02/12, -6.3, 74, 0.5, 0.9, 1.9, 1.5, 13.91, -2.3,  03/02/12 01:00, 96, 03/02/12 02:00, 0.5, 03/02/12 01:00, 1, 03/02/12 11:00, 1.9, 03/02/12 01:00, 1, 03/02/12 01:00, 2.13, 03/02/12 14:00, -8.2,  03/02/12 21:00, 57, 03/02/12 16:00, 0.4, 03/02/12 05:00, 0.9, 03/02/12 01:00, 1.8, 03/02/12 02:00, 
 03/02/13, -5.6, 70, 0.5, 1, 1.9, 0, 10.62, -2.3,  03/02/13 13:00, 85, 03/02/13 08:00, 0.6, 03/02/13 12:00, 1.1, 03/02/13 13:00, 2, 03/02/13 10:00, 0,   /  /     :, 2.19, 03/02/13 12:00, -8.7,  03/02/13 03:00, 55, 03/02/13 15:00, 0.4, 03/02/13 03:00, 0.9, 03/02/13 01:00, 1.8, 03/02/13 01:00, 
 03/02/14, -5.5, 86, 0.6, 1.1, 2, 1.5, 9.7, -2.9,  03/02/14 14:00, 96, 03/02/14 21:00, 0.7, 03/02/14 07:00, 1.1, 03/02/14 01:00, 2, 03/02/14 01:00, 0.5, 03/02/14 11:00, 2.01, 03/02/14 14:00, -7.4,  03/02/14 23:00, 76, 03/02/14 15:00, 0.5, 03/02/14 22:00, 1.1, 03/02/14 01:00, 2, 03/02/14 01:00, 
 03/02/15, -3.6, 64, 0.5, 1, 2, 0.5, 16.91, 2.3,  03/02/15 14:00, 87, 03/02/15 02:00, 0.6, 03/02/15 11:00, 1.1, 03/02/15 02:00, 2, 03/02/15 01:00, 0.5, 03/02/15 23:00, 2.59, 03/02/15 11:00, -9,  03/02/15 04:00, 38, 03/02/15 17:00, 0.5, 03/02/15 01:00, 1, 03/02/15 01:00, 2, 03/02/15 01:00, 
 03/02/16, -1.9, 85, 0.5, 1, 2, 14.5, 1.65, 0,  03/02/16 11:00, 99, 03/02/16 08:00, 0.5, 03/02/16 01:00, 1, 03/02/16 01:00, 2, 03/02/16 01:00, 2.5, 03/02/16 12:00, 0.42, 03/02/16 16:00, -4.6,  03/02/17 00:00, 22, 03/02/16 02:00, 0.5, 03/02/16 01:00, 1, 03/02/16 01:00, 2, 03/02/16 01:00, 
 03/02/17, -4.9, 79, 0.5, 1, 2, 0.5, 10.45, -0.9,  03/02/17 14:00, 91, 03/02/17 01:00, 0.6, 03/02/17 12:00, 1.1, 03/02/17 17:00, 2, 03/02/17 01:00, 0.5, 03/02/17 12:00, 2.33, 03/02/17 14:00, -7.9,  03/02/17 21:00, 58, 03/02/17 14:00, 0.5, 03/02/17 01:00, 1, 03/02/17 01:00, 2, 03/02/17 01:00, 
 03/02/18, -3, 77, 0.6, 1.1, 2, 0, 7.32, 1.9,  03/02/18 11:00, 99, 03/02/18 21:00, 0.7, 03/02/18 13:00, 1.1, 03/02/18 01:00, 2, 03/02/18 01:00, 0,   /  /     :, 1.75, 03/02/18 12:00, -7.7,  03/02/18 01:00, 45, 03/02/18 05:00, 0.5, 03/02/18 01:00, 1, 03/02/18 02:00, 2, 03/02/18 01:00, 
 03/02/19, -3.3, 74, 0.7, 1.1, 2, 0.5, 17.34, 1.6,  03/02/19 13:00, 96, 03/02/19 01:00, 0.7, 03/02/19 03:00, 1.1, 03/02/19 01:00, 2, 03/02/19 01:00, 0.5, 03/02/19 06:00, 2.85, 03/02/19 12:00, -8.6,  03/02/19 06:00, 53, 03/02/19 16:00, 0.5, 03/02/19 05:00, 1.1, 03/02/19 01:00, 2, 03/02/19 01:00, 
 03/02/20, -5.1, 84, 0.7, 1.1, 2, 5, 8.59, -2.5,  03/02/20 10:00, 95, 03/02/20 21:00, 0.7, 03/02/20 01:00, 1.1, 03/02/20 01:00, 2, 03/02/20 01:00, 1.5, 03/02/20 19:00, 1.33, 03/02/20 13:00, -8.3,  03/02/21 00:00, 66, 03/02/20 08:00, 0.7, 03/02/20 01:00, 1.1, 03/02/20 01:00, 2, 03/02/20 01:00, 
 03/02/21, -6.1, 77, 0.5, 1.1, 2, 0.5, 19.03, -1.9,  03/02/21 15:00, 93, 03/02/21 07:00, 0.6, 03/02/21 01:00, 1.1, 03/02/21 01:00, 2, 03/02/21 01:00, 0.5, 03/02/21 09:00, 2.75, 03/02/21 13:00, -9.5,  03/02/21 07:00, 19, 03/02/22 00:00, 0.5, 03/02/21 04:00, 1, 03/02/21 04:00, 2, 03/02/21 01:00, 
 03/02/22, -1.4, 78, 0.5, 1, 2, 5.5, 3.72, 1,  03/02/22 22:00, 99, 03/02/22 17:00, 0.6, 03/02/22 09:00, 1.1, 03/02/22 02:00, 2, 03/02/22 01:00, 1.5, 03/02/22 20:00, 0.69, 03/02/22 12:00, -4.9,  03/02/22 07:00, 11, 03/02/22 05:00, 0.5, 03/02/22 01:00, 1, 03/02/22 01:00, 2, 03/02/22 01:00, 
 03/02/23, -2.6, 98, 0.5, 1, 2, 0.5, 2.05, -1.7,  03/02/23 01:00, 99, 03/02/23 01:00, 0.6, 03/02/23 23:00, 1, 03/02/23 01:00, 2, 03/02/23 01:00, 0.5, 03/02/23 06:00, 0.34, 03/02/23 10:00, -3.4,  03/02/23 23:00, 94, 03/02/23 21:00, 0.5, 03/02/23 01:00, 1, 03/02/23 01:00, 2, 03/02/23 01:00, 
 03/02/24, -3.6, 93, 0.6, 1, 2, 6, 2.93, -2,  03/02/24 04:00, 96, 03/02/24 13:00, 0.7, 03/02/24 11:00, 1.1, 03/02/24 11:00, 2, 03/02/24 01:00, 1.5, 03/02/24 11:00, 0.63, 03/02/24 16:00, -6,  03/02/25 00:00, 89, 03/02/24 06:00, 0.6, 03/02/24 01:00, 1, 03/02/24 01:00, 2, 03/02/24 01:00, 
 03/02/25, -5.8, 82, 0.6, 1, 2, 1, 10.17, -2.6,  03/02/25 14:00, 97, 03/02/25 11:00, 0.7, 03/02/25 14:00, 1.1, 03/02/25 12:00, 2, 03/02/25 01:00, 0.5, 03/02/25 02:00, 1.88, 03/02/25 16:00, -8.5,  03/02/25 06:00, 59, 03/02/25 15:00, 0.6, 03/02/25 01:00, 1, 03/02/25 01:00, 2, 03/02/25 01:00, 
 03/02/26, -2.5, 74, 0.6, 1, 2, 1.5, 5.43, 0.6,  03/02/26 15:00, 99, 03/02/27 00:00, 0.6, 03/02/26 01:00, 1, 03/02/26 01:00, 2, 03/02/26 01:00, 1, 03/02/27 00:00, 0.95, 03/02/26 11:00, -7.1,  03/02/26 04:00, 43, 03/02/26 09:00, 0.6, 03/02/26 01:00, 1, 03/02/26 01:00, 2, 03/02/26 01:00, 
 03/02/27, -6.5, 86, 0.6, 1.1, 2, 0.5, 10.79, -2.9,  03/02/27 01:00, 94, 03/02/27 07:00, 0.7, 03/02/27 12:00, 1.1, 03/02/27 11:00, 2, 03/02/27 01:00, 0.5, 03/02/27 14:00, 2.06, 03/02/27 15:00, -11.9,  03/02/28 00:00, 69, 03/02/27 15:00, 0.6, 03/02/27 01:00, 1, 03/02/27 01:00, 2, 03/02/27 01:00, 
 03/02/28, -5.1, 71, 0.6, 1.1, 2, 0, 18.51, 3,  03/02/28 15:00, 94, 03/02/28 08:00, 0.7, 03/02/28 13:00, 1.1, 03/02/28 02:00, 2, 03/02/28 01:00, 0,   /  /     :, 2.94, 03/02/28 13:00, -13.5,  03/02/28 02:00, 40, 03/02/28 16:00, 0.6, 03/02/28 01:00, 1, 03/02/28 01:00, 2, 03/02/28 01:00, 
 03/03/01, 1.7, 93, 0.6, 1, 2, 46, 2.59, 5,  03/03/01 19:00, 99, 03/03/01 10:00, 0.6, 03/03/01 01:00, 1.1, 03/03/01 03:00, 2, 03/03/01 01:00, 5.5, 03/03/01 20:00, 0.48, 03/03/01 11:00, -2.1,  03/03/01 01:00, 73, 03/03/01 02:00, 0.5, 03/03/01 21:00, 0.9, 03/03/01 22:00, 1.9, 03/03/01 22:00, 
 03/03/02, -2.2, 76, 0.5, 0.9, 1.8, 11, 8.91, 0,  03/03/02 15:00, 99, 03/03/02 01:00, 0.5, 03/03/02 01:00, 1, 03/03/02 01:00, 1.9, 03/03/02 01:00, 2.5, 03/03/02 07:00, 1.19, 03/03/02 12:00, -4.6,  03/03/02 09:00, 35, 03/03/02 21:00, 0.5, 03/03/02 01:00, 0.8, 03/03/02 06:00, 1.8, 03/03/02 03:00, 
 03/03/03, -1, 82, 0.5, 0.9, 1.8, 12.5, 1.36, 1.7,  03/03/03 14:00, 99, 03/03/03 12:00, 0.5, 03/03/03 01:00, 1, 03/03/03 11:00, 1.8, 03/03/03 01:00, 3, 03/03/03 15:00, 0.28, 03/03/03 10:00, -7.5,  03/03/04 00:00, 38, 03/03/03 02:00, 0.5, 03/03/03 01:00, 0.8, 03/03/03 01:00, 1.7, 03/03/03 07:00, 
 03/03/04, -10.2, 88, 0.5, 0.9, 1.8, 11.5, 4.14, -6.2,  03/03/04 12:00, 96, 03/03/04 10:00, 0.6, 03/03/04 13:00, 1, 03/03/04 02:00, 1.8, 03/03/04 01:00, 3, 03/03/04 12:00, 0.88, 03/03/04 12:00, -11.3,  03/03/04 06:00, 76, 03/03/04 12:00, 0.4, 03/03/04 09:00, 0.9, 03/03/04 01:00, 1.7, 03/03/04 06:00, 
 03/03/05, -8.8, 87, 0.7, 1, 1.8, 0.5, 7.76, -4.7,  03/03/05 13:00, 96, 03/03/05 10:00, 0.7, 03/03/05 11:00, 1, 03/03/05 01:00, 1.8, 03/03/05 01:00, 0.5, 03/03/05 01:00, 1.31, 03/03/05 11:00, -13.6,  03/03/05 05:00, 79, 03/03/05 13:00, 0.6, 03/03/05 01:00, 0.9, 03/03/05 02:00, 1.7, 03/03/05 06:00, 
 03/03/06, -2.8, 86, 0.7, 1.1, 1.9, 1.5, 9.37, 1.1,  03/03/07 00:00, 99, 03/03/06 19:00, 0.7, 03/03/06 01:00, 1.1, 03/03/06 12:00, 2, 03/03/06 12:00, 0.5, 03/03/06 16:00, 1.49, 03/03/06 14:00, -8.6,  03/03/06 01:00, 69, 03/03/06 09:00, 0.7, 03/03/06 01:00, 1, 03/03/06 01:00, 1.8, 03/03/06 01:00, 
 03/03/07, 1.2, 93, 0.7, 1.1, 1.9, 13.5, 2.79, 4.1,  03/03/07 05:00, 99, 03/03/07 09:00, 0.7, 03/03/07 01:00, 1.1, 03/03/07 01:00, 2, 03/03/07 01:00, 2, 03/03/07 16:00, 0.39, 03/03/07 15:00, -2.8,  03/03/08 00:00, 75, 03/03/07 05:00, 0.7, 03/03/07 01:00, 1, 03/03/07 15:00, 1.8, 03/03/07 19:00, 
 03/03/08, -4.5, 93, 0.6, 1, 1.8, 10, 3.91, -3.3,  03/03/08 01:00, 96, 03/03/08 10:00, 0.7, 03/03/08 01:00, 1, 03/03/08 01:00, 1.8, 03/03/08 01:00, 1.5, 03/03/08 13:00, 0.53, 03/03/08 13:00, -6.1,  03/03/09 00:00, 87, 03/03/08 09:00, 0.6, 03/03/08 05:00, 1, 03/03/08 01:00, 1.8, 03/03/08 01:00, 
 03/03/09, -7.9, 89, 0.6, 1, 1.8, 4, 8.94, -5.8,  03/03/09 15:00, 95, 03/03/09 03:00, 0.6, 03/03/09 01:00, 1, 03/03/09 01:00, 1.8, 03/03/09 01:00, 1, 03/03/09 06:00, 1.45, 03/03/09 15:00, -11.1,  03/03/09 23:00, 78, 03/03/09 16:00, 0.6, 03/03/09 01:00, 1, 03/03/09 01:00, 1.7, 03/03/09 20:00, 
 03/03/10, -8.8, 85, 0.6, 1, 1.7, 0, 7.07, -5.9,  03/03/10 11:00, 90, 03/03/10 01:00, 0.6, 03/03/10 01:00, 1, 03/03/10 02:00, 1.8, 03/03/10 02:00, 0,   /  /     :, 1.22, 03/03/10 11:00, -11.8,  03/03/10 03:00, 76, 03/03/10 09:00, 0.5, 03/03/11 00:00, 0.9, 03/03/10 01:00, 1.7, 03/03/10 01:00, 
 03/03/11, -9.3, 80, 0.6, 1, 1.7, 7, 10.09, -4.9,  03/03/11 14:00, 92, 03/03/11 04:00, 0.6, 03/03/11 01:00, 1, 03/03/11 01:00, 1.8, 03/03/11 01:00, 6, 03/03/11 12:00, 1.63, 03/03/11 15:00, -11.4,  03/03/11 21:00, 66, 03/03/11 14:00, 0.5, 03/03/11 03:00, 1, 03/03/11 01:00, 1.7, 03/03/11 02:00, 
 03/03/12, -7.8, 80, 0.6, 1, 1.7, 0.5, 15.56, -3.3,  03/03/12 15:00, 92, 03/03/12 20:00, 0.6, 03/03/12 01:00, 1, 03/03/12 01:00, 1.8, 03/03/12 11:00, 0.5, 03/03/12 23:00, 2.64, 03/03/12 15:00, -11,  03/03/12 05:00, 62, 03/03/12 15:00, 0.5, 03/03/12 02:00, 0.9, 03/03/12 15:00, 1.7, 03/03/12 01:00, 
 03/03/13, -6.7, 71, 0.6, 1, 1.8, 0, 20.14, -1.1,  03/03/13 14:00, 90, 03/03/13 07:00, 0.7, 03/03/13 11:00, 1, 03/03/13 11:00, 2, 03/03/13 14:00, 0,   /  /     :, 2.91, 03/03/13 14:00, -12,  03/03/13 04:00, 29, 03/03/13 14:00, 0.5, 03/03/13 01:00, 0.9, 03/03/13 01:00, 1.7, 03/03/13 01:00, 
 03/03/14, -2.9, 49, 0.6, 1, 1.8, 0, 20.88, 2.7,  03/03/14 14:00, 67, 03/03/14 19:00, 0.6, 03/03/14 01:00, 1, 03/03/14 01:00, 1.8, 03/03/14 01:00, 0,   /  /     :, 3.01, 03/03/14 13:00, -9.5,  03/03/14 06:00, 28, 03/03/14 15:00, 0.6, 03/03/14 01:00, 0.9, 03/03/14 02:00, 1.8, 03/03/14 01:00, 
 03/03/15, -1.6, 74, 0.6, 1, 1.8, 0, 7.84, 0.9,  03/03/15 16:00, 99, 03/03/16 00:00, 0.6, 03/03/15 01:00, 1, 03/03/15 01:00, 1.8, 03/03/15 01:00, 0,   /  /     :, 1.37, 03/03/15 12:00, -3.7,  03/03/16 00:00, 32, 03/03/15 05:00, 0.6, 03/03/15 01:00, 0.9, 03/03/15 08:00, 1.8, 03/03/15 01:00, 
 03/03/16, 0.4, 71, 0.6, 1, 1.8, 10, 13.33, 6.9,  03/03/16 12:00, 99, 03/03/16 17:00, 0.6, 03/03/16 01:00, 1.1, 03/03/16 13:00, 1.8, 03/03/16 01:00, 2, 03/03/16 17:00, 2.96, 03/03/16 12:00, -6.3,  03/03/16 04:00, 29, 03/03/16 11:00, 0.6, 03/03/16 01:00, 0.9, 03/03/16 01:00, 1.7, 03/03/16 03:00, 
 03/03/17, -0.7, 94, 0.6, 0.9, 1.8, 1, 5.8, 3.5,  03/03/17 01:00, 99, 03/03/17 01:00, 0.6, 03/03/17 01:00, 0.9, 03/03/17 01:00, 1.8, 03/03/17 01:00, 0.5, 03/03/17 05:00, 1.13, 03/03/17 15:00, -3.7,  03/03/18 00:00, 82, 03/03/17 17:00, 0.6, 03/03/17 01:00, 0.9, 03/03/17 01:00, 1.7, 03/03/17 08:00, 
 03/03/18, -3.5, 80, 0.6, 0.9, 1.8, 0, 16.69, 0,  03/03/18 14:00, 99, 03/03/18 08:00, 0.6, 03/03/18 01:00, 1, 03/03/18 16:00, 1.8, 03/03/18 01:00, 0,   /  /     :, 3.43, 03/03/18 13:00, -7.1,  03/03/19 00:00, 56, 03/03/18 13:00, 0.6, 03/03/18 01:00, 0.9, 03/03/18 01:00, 1.7, 03/03/18 03:00, 
 03/03/19, -4.9, 76, 0.6, 1, 1.8, 0.5, 15.39, -1.4,  03/03/19 12:00, 89, 03/03/19 01:00, 0.7, 03/03/19 11:00, 1.1, 03/03/19 15:00, 1.8, 03/03/19 05:00, 0.5, 03/03/19 07:00, 2.54, 03/03/19 10:00, -8.4,  03/03/19 04:00, 56, 03/03/19 12:00, 0.6, 03/03/19 01:00, 0.9, 03/03/19 01:00, 1.7, 03/03/19 01:00, 